EW9311 Weather Reports


Display with metric or nautical units.
time (UTC)temp
F
wind
direction
speed
MPH
gust
MPH
rain 1hr
in
rain 24hr
in
rain mn
in
humidity
%
barometer
mb
20260831141534 41 0 1.0 16.0 0.11 0.11 0.11 92 1006.4
20260831140037 42 0 0.0 9.0 0.07 0.07 0.07 92 1006.4
20260831134535 42 0 0.0 14.0 0.05 0.05 0.05 90 1006.2
20260831133038 47 279 6.0 23.0 0.01 0.01 0.01 82 1005.5
20260831131536 51 0 0.0 9.0 0.00 0.00 0.00 79 1004.5
20260831130035 51 0 0.0 6.0 0.00 0.00 0.00 78 1004.7
20260831124550 51 0 0.0 8.0 0.00 0.00 0.00 79 1004.8
20260831123036 51 0 0.0 6.0 0.00 0.00 0.00 80 1004.9
20260831121537 50 0 0.0 2.0 0.00 0.00 0.00 81 1005.1
20260831120031 50 0 0.0 2.0 0.00 0.00 0.00 82 1005.2
20260831114547 50 0 0.0 2.0 0.00 0.00 0.00 82 1005.3
20260831113037 49 0 0.0 1.0 0.00 0.00 0.00 83 1005.6
20260831111533 49 0 0.0 0.0 0.00 0.00 0.00 83 1005.8
20260831110034 49 0 0.0 1.0 0.00 0.00 0.00 83 1006.0
20260831104548 49 0 0.0 2.0 0.00 0.00 0.00 83 1006.1
20260831103038 49 0 0.0 0.0 0.00 0.00 0.00 82 1006.4
20260831101534 49 0 0.0 0.0 0.00 0.00 0.00 81 1006.7
20260831100042 50 0 0.0 0.0 0.00 0.00 0.00 80 1007.0
20260831094536 50 0 0.0 1.0 0.00 0.00 0.00 80 1006.9
20260831093040 50 0 0.0 1.0 0.00 0.00 0.00 79 1006.8
20260831091534 51 0 0.0 4.0 0.00 0.00 0.00 78 1007.1
20260831090035 50 0 0.0 0.0 0.00 0.00 0.00 79 1007.6
20260831084535 51 0 0.0 0.0 0.00 0.00 0.00 78 1007.8
20260831083043 51 0 0.0 0.0 0.00 0.00 0.00 78 1008.0
20260831081536 52 0 0.0 0.0 0.00 0.00 0.00 79 1008.0
20260831080036 52 0 0.0 4.0 0.00 0.00 0.00 80 1008.4
20260831074538 51 0 0.0 1.0 0.00 0.00 0.00 80 1008.5
20260831073046 51 0 0.0 0.0 0.00 0.00 0.00 81 1008.7
20260831071537 51 0 0.0 0.0 0.00 0.00 0.00 81 1008.8
20260831070044 50 0 0.0 0.0 0.00 0.00 0.00 82 1009.0
20260831064536 49 0 0.0 0.0 0.00 0.00 0.00 85 1009.1
20260831063038 49 0 0.0 0.0 0.00 0.00 0.00 87 1009.2
20260831061537 49 0 0.0 0.0 0.00 0.00 0.00 88 1009.4
20260831060041 50 0 0.0 0.0 0.00 0.00 0.00 89 1009.8
20260831054533 50 0 0.0 0.0 0.00 0.00 0.00 88 1009.9
20260831053036 51 0 0.0 0.0 0.00 0.00 0.00 87 1010.1
20260831051536 51 0 0.0 0.0 0.00 0.00 0.00 86 1010.3
20260831050055 52 0 0.0 0.0 0.00 0.00 0.00 84 1010.3
20260831044546 52 0 0.0 0.0 0.00 0.00 0.00 84 1010.6
20260831043036 52 0 0.0 0.0 0.00 0.00 0.00 83 1010.5
20260831041535 52 0 0.0 0.0 0.00 0.00 0.00 81 1010.4
20260831040035 53 0 0.0 0.0 0.00 0.00 0.00 82 1010.4
20260831034537 53 0 0.0 0.0 0.00 0.00 0.00 80 1010.7
20260831033037 54 0 0.0 0.0 0.00 0.00 0.00 79 1011.0
20260831031532 55 0 0.0 0.0 0.00 0.00 0.00 78 1011.4
20260831030033 56 0 0.0 0.0 0.00 0.00 0.00 77 1011.8
20260831024557 56 0 0.0 0.0 0.00 0.00 0.00 77 1011.9
20260831023035 57 0 0.0 0.0 0.00 0.00 0.00 73 1012.4
20260831021535 57 0 0.0 0.0 0.00 0.00 0.00 72 1012.9
20260831020059 57 0 0.0 0.0 0.00 0.00 0.00 69 1013.0
20260831014545 57 0 0.0 0.0 0.00 0.00 0.00 67 1013.2
20260831013035 58 0 0.0 0.0 0.00 0.00 0.00 66 1013.3
20260831011538 58 0 0.0 0.0 0.00 0.00 0.00 67 1013.4
20260831010044 58 0 0.0 0.0 0.00 0.00 0.00 65 1013.7
20260831004534 58 0 0.0 0.0 0.00 0.00 0.00 65 1013.9
20260831003034 57 0 0.0 0.0 0.00 0.00 0.00 64 1014.0
20260831001542 57 0 0.0 0.0 0.00 0.00 0.00 63 1014.0
20260831000036 57 0 0.0 0.0 0.00 0.00 0.00 68 1014.2
20260830234553 57 0 0.0 0.0 0.00 0.00 0.00 65 1014.5
20260830233036 57 0 0.0 1.0 0.00 0.00 0.00 64 1014.7
20260830231533 57 0 0.0 0.0 0.00 0.00 0.00 62 1014.8
20260830230039 58 0 0.0 0.0 0.00 0.00 0.00 60 1014.8
20260830224542 58 0 0.0 0.0 0.00 0.00 0.00 61 1014.8
20260830223040 58 0 0.0 0.0 0.00 0.00 0.00 62 1014.8
20260830221536 57 0 0.0 0.0 0.00 0.00 0.00 62 1015.0
20260830220039 57 0 0.0 0.0 0.00 0.00 0.00 64 1015.3
20260830214534 57 0 0.0 0.0 0.00 0.00 0.00 63 1015.3
20260830213035 57 0 0.0 0.0 0.00 0.00 0.00 64 1015.3
20260830211537 56 0 0.0 0.0 0.00 0.00 0.00 63 1015.2
20260830210036 56 0 0.0 0.0 0.00 0.00 0.00 63 1015.4
20260830204533 57 0 0.0 0.0 0.00 0.00 0.00 65 1015.6
20260830203035 57 0 0.0 0.0 0.00 0.00 0.00 64 1015.6
20260830201603 57 0 0.0 0.0 0.00 0.00 0.00 60 1015.7
20260830200034 56 0 0.0 0.0 0.00 0.00 0.00 60 1016.0
20260830194536 56 0 0.0 0.0 0.00 0.00 0.00 61 1016.1
20260830193040 56 0 0.0 0.0 0.00 0.00 0.00 61 1016.2
20260830191537 55 0 0.0 0.0 0.00 0.00 0.00 63 1016.2
20260830190038 55 0 0.0 0.0 0.00 0.00 0.00 64 1016.4
20260830184541 54 0 0.0 0.0 0.00 0.00 0.00 66 1016.6
20260830183034 54 0 0.0 0.0 0.00 0.00 0.00 64 1016.5
20260830181540 54 0 0.0 0.0 0.00 0.00 0.00 65 1016.9
20260830180035 54 0 0.0 0.0 0.00 0.00 0.00 63 1016.9
20260830174534 54 0 0.0 0.0 0.00 0.00 0.00 65 1017.2
20260830173037 53 0 0.0 1.0 0.00 0.00 0.00 67 1017.2
20260830171538 51 0 0.0 0.0 0.00 0.00 0.00 68 1017.2
20260830170036 50 0 0.0 0.0 0.00 0.00 0.00 69 1017.3
20260830164536 48 0 0.0 0.0 0.00 0.00 0.00 77 1017.2
20260830163038 45 0 0.0 0.0 0.00 0.00 0.00 83 1017.0
20260830161535 43 0 0.0 0.0 0.00 0.00 0.00 84 1017.1
20260830160034 42 0 0.0 0.0 0.00 0.00 0.00 87 1017.1
20260830154535 40 0 0.0 0.0 0.00 0.00 0.00 88 1017.2
20260830153040 39 0 0.0 0.0 0.00 0.00 0.00 89 1017.2
20260830151536 38 0 0.0 0.0 0.00 0.00 0.00 90 1017.1
20260830150036 38 0 0.0 0.0 0.00 0.00 0.00 89 1016.9
20260830144542 39 0 0.0 0.0 0.00 0.00 0.00 88 1016.9
20260830143035 40 0 0.0 0.0 0.00 0.00 0.00 88 1016.8